Regional Weather Roundup
Issued by NWS

Home | Current Version | Previous Version | Graphics & Text | Print | Product List | Glossary On
Versions: 1 2 3 4 5 6 7 8 9 10 11 12 13 14 15 16 17 18 19 20 21 22 23 24 25 26 27 28 29 30 31 32 33 34 35 36 37 38 39 40 41 42 43 44 45 46 47 48 49 50
000
ASUS43 KMKX 051321
RWRWI

WISCONSIN REGIONAL WEATHER ROUNDUP
NATIONAL WEATHER SERVICE MILWAUKEE/SULLIVAN WI
800 AM CDT TUE MAY 05 2015

NOTE: "FAIR" INDICATES FEW OR NO CLOUDS BELOW 12,000 FEET WITH NO
SIGNIFICANT WEATHER AND/OR OBSTRUCTIONS TO VISIBILITY.

WIZ001-002-006>008-014>016-023>028-051400-
NORTHWEST WISCONSIN

CITY           SKY/WX    TMP DP  RH WIND       PRES   REMARKS
SUPERIOR ARPT  SUNNY     46  34  65 NE5       30.29S
ASHLAND        SUNNY     50  35  56 CALM      30.31R
HAYWARD        SUNNY     52  34  50 VRB6      30.28S
SIREN          SUNNY     53  33  47 SE6       30.25S
CUMBERLAND     SUNNY     52  30  43 E10       30.26S
RICE LAKE      SUNNY     55  27  33 E12       30.28R
CHETEK         SUNNY     53  35  50 E9        30.26S
LADYSMITH      SUNNY     54  31  41 E8        30.30S
EAU CLAIRE     PTSUNNY   54  36  50 SE9       30.25R
MENOMONIE      MOSUNNY   53  38  56 E9        30.25R
NEW RICHMOND   SUNNY     54  35  48 E12G17    30.23R
OSCEOLA        SUNNY     54  35  47 E9        30.25S
$$

WIZ003>005-009-010-017-018-051400-
NORTH CENTRAL WISCONSIN

CITY           SKY/WX    TMP DP  RH WIND       PRES   REMARKS
MANITOWISH WTR SUNNY     51  35  55 SE3       30.31S
ARBOR VITAE    SUNNY     53  32  45 SE8       30.31R
WOODRUFF       SUNNY     53  32  45 SE8       30.31R
RHINELANDER    SUNNY     50  33  52 E9        30.32R
EAGLE RIVER    SUNNY     52  32  45 SE5       30.32R
LAND O LAKES   SUNNY     49  38  65 CALM      30.33S
PHILLIPS       SUNNY     52  33  49 E6        30.29
TOMAHAWK       MOSUNNY   51  34  53 CALM      30.31R
MEDFORD        SUNNY     50  33  53 E9        30.28S
MERRILL        MOSUNNY   52  32  47 E5        30.29F
$$

WIZ029-030-035-036-043>047-051400-
CENTRAL WISCONSIN

CITY           SKY/WX    TMP DP  RH WIND       PRES   REMARKS
WAUSAU         MOSUNNY   51  31  46 E7        30.28R
MOSINEE        SUNNY     50  34  53 E10       30.30R
MARSHFIELD     MOSUNNY   52  33  48 E12       30.28R
STEVENS POINT  PTSUNNY   49  35  58 E12G18    30.30S
WAUPACA        PTSUNNY   51  38  62 NE5       30.30S
WAUTOMA        CLOUDY    50  40  68 NE7       30.28S
WISC RAPIDS    PTSUNNY   53  34  48 E10       30.29R
CAMP DOUGLAS   PTSUNNY   52  39  62 E10       30.24S
$$

WIZ011>013-019>022-031-037>040-048>050-051400-
NORTHEAST WISCONSIN

CITY           SKY/WX    TMP DP  RH WIND       PRES   REMARKS
ANTIGO         MOSUNNY   51  28  40 E14       30.30S
SHAWANO        PTSUNNY   51  38  60 E5        30.33R
OCONTO         PTSUNNY   50  38  65 E6        30.34R
STURGEON BAY   CLOUDY    48  34  57 E9        30.36R
GREEN BAY      CLOUDY    51  36  56 NE12      30.32R
MANITOWOC      CLOUDY    47  37  68 CALM      30.32R
APPLETON       PTSUNNY   48  34  57 NE8       30.30R
CLINTONVILLE   PTSUNNY   46  36  66 E3        30.32R
OSHKOSH        CLOUDY    52  37  56 E7        30.27F
$$

WIZ032>034-041-042-053>061-051400-
SOUTHWEST WISCONSIN

CITY           SKY/WX    TMP DP  RH WIND       PRES   REMARKS
LA CROSSE      LGT RAIN  55  46  71 SE6       30.23R
SPARTA         CLOUDY    54  37  53 E7        30.25R
VIROQUA        CLOUDY    48  48 100 E12       30.23R
BOSCOBEL       CLOUDY    52  48  86 NE5       30.23R
PRAIRIE DU CHI CLOUDY    53  48  83 E9G20     30.20R
PLATTEVILLE    CLOUDY    51  49  93 E17G24    30.19R
$$

WIZ056-057-062-063-064-067-068-051400-
SOUTH CENTRAL WISCONSIN

CITY           SKY/WX    TMP DP  RH WIND       PRES   REMARKS
REEDSBURG      DRIZZLE   47  46  95 E6        30.25R
BARABOO/DELLS  NOT AVBL
LONE ROCK      LGT RAIN  50  45  83 E12       30.24R
MINERAL POINT  RAIN      50  46  87 E12G17    30.21R
MADISON        LGT RAIN  49  43  80 E6        30.24R
MIDDLETON      CLOUDY    50  45  84 E8        30.25R
WATERTOWN      DRIZZLE   49  45  87 E7        30.24R
MONROE         DRIZZLE   48  46  93 NE14      30.21R
JANESVILLE     DRIZZLE   50  48  93 E10       30.21R
$$

WIZ051-052-058>065-066-070>072-051400-
SOUTHEAST WISCONSIN

CITY           SKY/WX    TMP DP  RH WIND       PRES   REMARKS
MILWAUKEE      LGT RAIN  45  41  86 NE16      30.25F
WAUKESHA       CLOUDY    45  43  93 E9        30.25F
MILWAUKEE/TIMM DRIZZLE   46  39  76 E8        30.27S
RACINE         LGT RAIN  47  43  86 NE16      30.23F
BURLINGTON     RAIN      46  44  95 NE9       30.22S
KENOSHA        CLOUDY    47  44  90 NE13      30.22F
FOND DU LAC    CLOUDY    52  37  56 E6        30.27S
SHEBOYGAN      CLOUDY    46  37  71 NE8       30.29R
WEST BEND      DRIZZLE   46  41  81 NE9       30.27S
JUNEAU         RAIN      48  44  84 E9        30.26S
$$

LSZ147-162-051400-
LAKE SUPERIOR

STATION/POSITION TIME  TEMP    WIND        PRES    WAVE
                       AIR SEA DIR/SP/G            HT/PER
                 (UTC) (F)     (DEG/KT/KT) (MB)    (FT/S)
W MID LAKE BUOY  1250   40 35  100/  6/  6 1027.0R   0
DEVILS ISLAND    1300   52     220/  1/  2 1026.5R
PORT WING        1200   37     140/  3/  5 1025.4R
SAXON HARBOR     1200   38        CALM     1025.4
$$

LMZ867-665-643>646-051400-
LAKE MICHIGAN

STATION/POSITION TIME  TEMP    WIND        PRES    WAVE
                       AIR SEA DIR/SP/G            HT/PER
                 (UTC) (F)     (DEG/KT/KT) (MB)    (FT/S)
CHAMBERS ISLAND  1240   46      20/  9/ 10 1027.4R
NORTHPORT PIER   1300   47     100/  4/  8 1027.4R
SISTER BAY       1117   42        CALM       N/A
KEWAUNEE LAKESHO 1200   43      40/  7/ 10 1025.6R
SHEBOYGAN LAKESH 1300   44      30/  7/  9 1026.4R
PORT WASHINGTON  1200   47      30/  8/  9 1025.7R
ATWATER BUOY     1300   43      40/ 10/ 12 1025.7F
MILWAUKEE LAKESH 1300   44      40/ 13/ 15   N/A
KENOSHA   LAKESH 1300   45      40/ 14/ 20 1023.4F
$$

TC  - TEMPERATURE IN CELSIUS
VSB - VISIBILITY IN STATUTE MILES
WCI - WIND CHILL INDEX
HX  - HEAT INDEX




USA.gov is the U.S. government's official web portal to all federal, state and local government web resources and services.